DW9029 Weather Reports


Display with metric or nautical units.
time (UTC)temp
F
wind
direction
speed
MPH
gust
MPH
rain 1hr
in
rain 24hr
in
rain mn
in
humidity
%
barometer
mb
20260507051905 56 175 0.0 0.0 0.00 0.00 0.00 83 1009.1
20260507050904 56 175 0.0 0.0 0.00 0.00 0.00 83 1009.0
20260507044905 56 175 0.0 0.0 0.00 0.00 0.00 84 1008.8
20260507044404 56 175 0.0 0.0 0.00 0.00 0.00 84 1008.8
20260507043904 56 175 0.0 0.0 0.00 0.00 0.00 84 1008.7
20260507043405 56 175 0.0 0.0 0.00 0.00 0.00 84 1008.7
20260507041904 56 175 0.0 0.0 0.00 0.00 0.00 83 1008.6
20260507041405 56 175 0.0 0.0 0.00 0.00 0.00 83 1008.4
20260507034905 57 175 0.0 0.0 0.00 0.00 0.00 81 1008.4
20260507034404 57 181 0.0 0.0 0.00 0.00 0.00 81 1008.3
20260507033905 57 207 0.0 0.0 0.00 0.00 0.00 80 1008.3
20260507031904 57 207 0.0 0.0 0.00 0.00 0.00 80 1008.4
20260507031405 57 207 0.0 0.0 0.00 0.00 0.00 79 1008.4
20260507030905 57 207 0.0 0.0 0.00 0.00 0.00 79 1008.4
20260507030405 57 207 0.0 0.0 0.00 0.00 0.00 79 1008.3
20260507024905 58 207 0.0 0.0 0.00 0.00 0.00 79 1008.2
20260507023905 58 207 0.0 0.0 0.00 0.00 0.00 78 1008.2
20260507021904 58 188 0.0 0.0 0.00 0.00 0.00 78 1008.1
20260507021404 58 187 0.0 3.0 0.00 0.00 0.00 78 1008.1
20260507020405 58 181 0.0 3.0 0.00 0.00 0.00 78 1008.1
20260507014905 58 182 1.0 5.0 0.00 0.00 0.00 77 1008.2
20260507014404 58 177 1.0 3.0 0.00 0.00 0.00 77 1008.2
20260507013904 58 179 0.0 3.0 0.00 0.00 0.00 77 1008.3
20260507011905 58 181 1.0 3.0 0.00 0.00 0.00 77 1008.4
20260507011404 58 178 0.0 0.0 0.00 0.00 0.00 77 1008.5
20260507010404 58 167 1.0 3.0 0.00 0.00 0.00 77 1008.5
20260507003905 58 182 0.0 0.0 0.00 0.00 0.00 76 1008.6
20260507003405 58 183 0.0 3.0 0.00 0.00 0.00 76 1008.6
20260507001904 58 174 1.0 7.0 0.00 0.00 0.00 76 1008.7
20260507001405 58 184 1.0 6.0 0.00 0.00 0.00 76 1008.8
20260507000406 59 186 2.0 7.0 0.00 0.00 0.00 76 1008.8
20260506233905 59 184 1.0 5.0 0.00 0.00 0.00 76 1008.9
20260506233405 59 186 1.0 3.0 0.00 0.00 0.00 77 1009.0
20260506231904 60 175 0.0 0.0 0.00 0.00 0.00 76 1009.0
20260506231404 60 175 0.0 0.0 0.00 0.00 0.00 76 1008.9
20260506230905 60 175 0.0 0.0 0.00 0.00 0.00 75 1009.0
20260506230405 60 178 0.0 3.0 0.00 0.00 0.00 74 1008.9
20260506224405 60 217 0.0 2.0 0.00 0.00 0.00 73 1009.0
20260506223405 60 182 0.0 5.0 0.00 0.00 0.00 71 1009.0
20260506221905 60 188 2.0 5.0 0.00 0.00 0.00 68 1009.0
20260506221405 60 170 0.0 3.0 0.00 0.00 0.00 67 1009.0
20260506220905 61 174 0.0 2.0 0.00 0.00 0.00 66 1008.9
20260506220404 61 192 0.0 3.0 0.00 0.00 0.00 66 1008.8
20260506214904 61 176 0.0 3.0 0.00 0.00 0.00 64 1008.9
20260506214405 61 166 0.0 2.0 0.00 0.00 0.00 63 1008.9
20260506213904 62 171 0.0 3.0 0.00 0.00 0.00 62 1008.9
20260506213405 63 162 1.0 5.0 0.00 0.00 0.00 60 1008.8
20260506211905 64 192 1.0 7.0 0.00 0.00 0.00 57 1008.6
20260506210904 64 230 0.0 7.0 0.00 0.00 0.00 57 1008.5
20260506210404 64 224 1.0 9.0 0.00 0.00 0.00 56 1008.4
20260506204904 65 257 2.0 8.0 0.00 0.00 0.00 56 1008.1
20260506204405 65 241 3.0 9.0 0.00 0.00 0.00 55 1008.1
20260506203905 65 249 3.0 7.0 0.00 0.00 0.00 55 1007.9
20260506203404 65 250 5.0 10.0 0.00 0.00 0.00 55 1007.9
20260506201904 66 242 2.0 8.0 0.00 0.00 0.00 54 1007.9
20260506201404 66 256 2.0 10.0 0.00 0.00 0.00 54 1007.9
20260506200905 66 228 4.0 9.0 0.00 0.00 0.00 53 1007.9
20260506200405 67 259 3.0 8.0 0.00 0.00 0.00 53 1007.8
20260506194905 68 231 3.0 9.0 0.00 0.00 0.00 51 1007.7
20260506194404 68 231 3.0 9.0 0.00 0.00 0.00 50 1007.6
20260506193904 68 245 2.0 5.0 0.00 0.00 0.00 50 1007.5
20260506193405 68 234 3.0 10.0 0.00 0.00 0.00 49 1007.4
20260506191904 69 247 2.0 8.0 0.00 0.00 0.00 49 1007.3
20260506191405 69 262 2.0 7.0 0.00 0.00 0.00 48 1007.2
20260506190905 69 250 1.0 6.0 0.00 0.00 0.00 48 1007.2
20260506190405 69 250 6.0 12.0 0.00 0.00 0.00 48 1007.1
20260506184905 70 251 4.0 12.0 0.00 0.00 0.00 46 1007.0
20260506184404 71 253 6.0 13.0 0.00 0.00 0.00 46 1007.0
20260506183405 71 255 9.0 14.0 0.00 0.00 0.00 45 1007.0
20260506181905 72 222 5.0 12.0 0.00 0.00 0.00 45 1007.0
20260506181404 72 236 4.0 9.0 0.00 0.00 0.00 45 1006.9
20260506180904 72 253 3.0 13.0 0.00 0.00 0.00 45 1006.9
20260506180405 72 241 7.0 15.0 0.00 0.00 0.00 43 1007.0
20260506174904 73 240 3.0 12.0 0.00 0.00 0.00 40 1007.0
20260506174404 73 217 5.0 12.0 0.00 0.00 0.00 40 1007.0
20260506173404 74 239 5.0 12.0 0.00 0.00 0.00 39 1007.0
20260506171905 74 208 4.0 8.0 0.00 0.00 0.00 39 1007.2
20260506171405 74 211 6.0 12.0 0.00 0.00 0.00 39 1007.2
20260506170405 75 217 4.0 14.0 0.00 0.00 0.00 39 1007.2
20260506163904 75 230 5.0 12.0 0.00 0.00 0.00 38 1007.3
20260506163404 75 229 6.0 15.0 0.00 0.00 0.00 39 1007.3
20260506161905 75 184 7.0 12.0 0.00 0.00 0.00 39 1007.3
20260506154904 75 141 3.0 9.0 0.00 0.00 0.00 35 1007.4
20260506154404 76 139 7.0 13.0 0.00 0.00 0.00 35 1007.5
20260506153904 76 124 5.0 13.0 0.00 0.00 0.00 35 1007.5
20260506151904 75 132 4.0 9.0 0.00 0.00 0.00 36 1007.8
20260506151405 75 42 2.0 5.0 0.00 0.00 0.00 36 1007.9
20260506150905 75 133 3.0 9.0 0.00 0.00 0.00 36 1008.0
20260506150404 75 77 1.0 10.0 0.00 0.00 0.00 36 1008.1
20260506144905 75 44 1.0 7.0 0.00 0.00 0.00 36 1008.3
20260506144404 75 89 1.0 7.0 0.00 0.00 0.00 36 1008.4
20260506143404 75 112 5.0 12.0 0.00 0.00 0.00 36 1008.6
20260506141905 75 190 3.0 10.0 0.00 0.00 0.00 36 1008.9
20260506141404 74 148 4.0 7.0 0.00 0.00 0.00 37 1008.9
20260506140904 74 209 3.0 5.0 0.00 0.00 0.00 36 1009.0
20260506140404 74 138 5.0 8.0 0.00 0.00 0.00 37 1009.0
20260506134905 73 89 3.0 7.0 0.00 0.00 0.00 37 1009.3
20260506134404 73 49 3.0 8.0 0.00 0.00 0.00 37 1009.2
20260506133904 73 67 2.0 7.0 0.00 0.00 0.00 36 1009.4
20260506133405 73 98 4.0 12.0 0.00 0.00 0.00 37 1009.5
20260506131904 73 86 2.0 5.0 0.00 0.00 0.00 37 1009.7
20260506131405 73 247 2.0 9.0 0.00 0.00 0.00 37 1009.8
20260506130905 73 129 8.0 12.0 0.00 0.00 0.00 37 1009.8
20260506130404 73 191 5.0 10.0 0.00 0.00 0.00 37 1009.9
20260506124904 72 202 5.0 9.0 0.00 0.00 0.00 38 1010.0
20260506124404 73 167 2.0 8.0 0.00 0.00 0.00 37 1010.0
20260506123404 72 140 3.0 7.0 0.00 0.00 0.00 38 1010.1
20260506121905 71 237 0.0 2.0 0.00 0.00 0.00 39 1010.3
20260506121405 71 121 0.0 3.0 0.00 0.00 0.00 39 1010.3
20260506120904 72 141 2.0 3.0 0.00 0.00 0.00 39 1010.4
20260506120404 72 127 0.0 7.0 0.00 0.00 0.00 39 1010.5
20260506114905 71 79 3.0 8.0 0.00 0.00 0.00 39 1010.6
20260506114404 71 163 1.0 7.0 0.00 0.00 0.00 39 1010.7
20260506113904 71 110 3.0 7.0 0.00 0.00 0.00 38 1010.8
20260506113405 71 133 3.0 7.0 0.00 0.00 0.00 40 1010.7
20260506111905 71 115 0.0 3.0 0.00 0.00 0.00 43 1010.8
20260506111404 70 126 0.0 3.0 0.00 0.00 0.00 44 1010.9
20260506110904 70 134 2.0 3.0 0.00 0.00 0.00 44 1010.9
20260506110404 70 165 1.0 6.0 0.00 0.00 0.00 44 1010.9
20260506104904 70 72 0.0 0.0 0.00 0.00 0.00 44 1011.2
20260506104405 70 60 1.0 6.0 0.00 0.00 0.00 45 1011.2
20260506103904 71 61 0.0 3.0 0.00 0.00 0.00 46 1011.2
20260506101905 69 117 1.0 3.0 0.00 0.00 0.00 49 1011.4
20260506101404 69 58 0.0 0.0 0.00 0.00 0.00 49 1011.4
20260506100904 68 68 0.0 3.0 0.00 0.00 0.00 50 1011.4
20260506094905 67 31 2.0 5.0 0.00 0.00 0.00 52 1011.5
20260506091904 65 124 0.0 0.0 0.00 0.00 0.00 54 1011.5
20260506090904 64 59 0.0 0.0 0.00 0.00 0.00 56 1011.5
20260506090405 64 17 0.0 0.0 0.00 0.00 0.00 55 1011.6
20260506084404 63 22 0.0 0.0 0.00 0.00 0.00 58 1011.7
20260506083905 63 26 0.0 3.0 0.00 0.00 0.00 57 1011.7
20260506081904 62 11 1.0 3.0 0.00 0.00 0.00 59 1011.7
20260506081405 62 53 3.0 6.0 0.00 0.00 0.00 59 1011.6
20260506080905 62 354 0.0 5.0 0.00 0.00 0.00 60 1011.7
20260506073404 62 36 4.0 6.0 0.00 0.00 0.00 60 1011.7
20260506071904 62 352 0.0 5.0 0.00 0.00 0.00 61 1011.7
20260506071404 62 18 1.0 5.0 0.00 0.00 0.00 62 1011.7
20260506070905 61 4 1.0 3.0 0.00 0.00 0.00 63 1011.6
20260506070405 61 12 0.0 6.0 0.00 0.00 0.00 63 1011.6
20260506061904 59 351 1.0 3.0 0.00 0.00 0.00 66 1011.4
20260506061405 58 5 1.0 5.0 0.00 0.00 0.00 66 1011.5
20260506060904 58 358 0.0 3.0 0.00 0.00 0.00 66 1011.4